Time_in_sec,Latitude,Longitude,Altitude,Nbsat_max_qualitysignal,Nbsat_locked,valid_data
1326900241.50949621,47.37633514,8.55032253,509.32431030,5,8,1
1326900322.56155276,47.37639236,8.55026531,514.49176025,6,9,1
1326900322.61356401,47.37639236,8.55026531,514.50628662,6,9,1
1326900322.66097784,47.37639236,8.55026340,514.01654053,6,9,1
1326900322.70949602,47.37639236,8.55026340,514.00183105,6,9,1
1326900322.76110482,47.37639236,8.55026340,514.01763916,6,9,1
1326900322.81405258,47.37639236,8.55026340,514.03350830,6,9,1
1326900322.86148763,47.37639236,8.55026245,514.04925537,6,9,1
1326900322.91096091,47.37639618,8.55026150,513.55902100,6,9,1
1326900322.96480870,47.37639618,8.55026150,513.54254150,6,9,1
1326900323.00951862,47.37639618,8.55026150,513.55603027,6,9,1
1326900323.06058049,47.37639618,8.55026054,513.56951904,6,9,1
1326900323.10947871,47.37639618,8.55026054,513.58294678,6,9,1
1326900323.16159177,47.37639999,8.55025959,513.09045410,6,9,1
1326900323.21148276,47.37639999,8.55025959,513.06512451,6,9,1
1326900323.26153517,47.37639999,8.55025864,513.07623291,6,9,1
1326900323.30954409,47.37639999,8.55025864,513.08734131,6,9,1
1326900323.36150265,47.37639999,8.55025864,513.09838867,6,9,1
1326900323.40931177,47.37640381,8.55025768,512.60559082,6,9,1
1326900323.46167350,47.37640381,8.55025673,512.58599854,6,9,1
1326900323.52116156,47.37640381,8.55025673,512.59478760,6,9,1
1326900323.56154680,47.37640381,8.55025673,512.60528564,6,9,1
1326900323.61262488,47.37640381,8.55025673,512.61230469,6,9,1
1326900323.66959786,47.37640762,8.55025578,512.12188721,6,9,1
1326900323.71281719,47.37640762,8.55025578,512.09820557,6,9,1
1326900323.76149344,47.37640762,8.55025578,512.10339355,6,9,1
1326900323.82097673,47.37640762,8.55025482,512.10986328,6,9,1
1326900323.86156130,47.37640762,8.55025482,512.11755371,6,9,1
1326900323.90950561,47.37640762,8.55025387,511.62911987,6,9,1
1326900323.96242213,47.37640762,8.55025482,511.60913086,6,9,1
1326900324.02137303,47.37640762,8.55025387,511.61340332,6,9,1
1326900324.05970287,47.37641144,8.55025387,511.61849976,6,9,1
1326900324.11274290,47.37641144,8.55025387,511.62185669,6,9,1
1326900324.16151714,47.37641144,8.55025291,511.13803101,6,9,1
1326900324.21305752,47.37641144,8.55025291,511.11648560,6,9,1
1326900324.26150751,47.37641144,8.55025291,511.11856079,6,9,1
1326900324.31762791,47.37641144,8.55025291,511.12060547,6,9,1
1326900324.36090016,47.37641144,8.55025196,511.12258911,6,9,1
1326900324.41261959,47.37641525,8.55025196,510.64617920,6,9,1
1326900324.46149707,47.37641525,8.55025196,510.61938477,6,9,1
1326900324.52057219,47.37641525,8.55025196,510.61926270,6,9,1
1326900324.56148338,47.37641525,8.55025101,510.61901855,6,9,1
1326900324.61352086,47.37641525,8.55025101,510.61883545,6,9,1
1326900324.66152167,47.37641907,8.55025005,510.15246582,6,9,1
1326900324.71500230,47.37641907,8.55025101,510.12472534,6,9,1
1326900324.76150227,47.37641907,8.55025005,510.12243652,6,9,1
1326900324.81368566,47.37641907,8.55025005,510.12011719,6,9,1
1326900324.86950302,47.37641907,8.55025005,510.11776733,6,9,1
1326900324.91383362,47.37642288,8.55024910,509.65982056,6,9,1
1326900324.96149659,47.37642288,8.55024910,509.63778687,6,9,1
1326900325.02074265,47.37642288,8.55024910,509.63345337,6,9,1
1326900325.06149387,47.37642288,8.55024910,509.62820435,6,9,1
1326900325.11348319,47.37642288,8.55024910,509.62469482,6,9,1
1326900325.16152430,47.37642288,8.55024815,509.17654419,6,9,1
1326900325.21271896,47.37642288,8.55024815,509.14343262,6,9,1
1326900325.26148915,47.37642288,8.55024815,509.13702393,6,9,1
1326900325.30961537,47.37642670,8.55024815,509.13061523,6,9,1
1326900325.36150956,47.37642670,8.55024815,509.12411499,6,9,1
1326900325.40956211,47.37642670,8.55024719,508.68392944,6,9,1
1326900325.46155024,47.37642670,8.55024815,508.65121460,6,9,1
1326900325.52057266,47.37642670,8.55024815,508.64279175,6,9,1
1326900325.56191349,47.37642670,8.55024719,508.63265991,6,9,1
1326900325.61252522,47.37642670,8.55024719,508.62588501,6,9,1
1326900325.66139865,47.37643051,8.55024719,508.19418335,6,9,1
1326900325.70953798,47.37643051,8.55024719,508.16040039,6,9,1
1326900325.76149368,47.37643051,8.55024719,508.15005493,6,9,1
1326900325.81372976,47.37643051,8.55024624,508.13964844,6,9,1
1326900325.86102176,47.37643051,8.55024624,508.12918091,6,9,1
1326900325.90960622,47.37643433,8.55024624,507.70663452,6,9,1
1326900325.96052670,47.37643433,8.55024624,507.67138672,6,9,1
1326900326.00945234,47.37643433,8.55024529,507.65911865,6,9,1
1326900326.06988120,47.37643433,8.55024529,507.64682007,6,9,1
1326900326.10954189,47.37643433,8.55024529,507.63198853,6,9,1
1326900326.16150999,47.37643433,8.55024529,507.22210693,6,9,1
1326900326.20933867,47.37643433,8.55024529,507.18063354,6,9,1
1326900326.26154208,47.37643814,8.55024529,507.16641235,6,9,1
1326900326.30950856,47.37643814,8.55024529,507.15219116,6,9,1
1326900326.36117005,47.37643814,8.55024529,507.13790894,6,9,1
1326900326.40953374,47.37643814,8.55024529,506.73254395,6,9,1
1326900326.46951127,47.37643814,8.55024338,506.69320679,6,9,1
1326900326.52063441,47.37643814,8.55024338,506.67398071,6,9,1
1326900326.56150770,47.37643814,8.55024338,506.65789795,6,9,1
1326900326.60917926,47.37643814,8.55024338,506.64498901,6,9,1
1326900326.66052628,47.37644196,8.55024242,506.25189209,6,9,1
1326900326.70948076,47.37644196,8.55024242,506.20938110,6,9,1
1326900326.76058292,47.37644196,8.55024242,506.19152832,6,9,1
1326900326.80954409,47.37644196,8.55024242,506.17364502,6,9,1
1326900326.86017132,47.37644196,8.55024242,506.15573120,6,9,1
1326900326.90964317,47.37644577,8.55024147,505.77120972,6,9,1
1326900326.96079350,47.37644196,8.55024147,505.73364258,6,9,1
1326900327.02161479,47.37644196,8.55024147,505.71411133,6,9,1
1326900327.06551695,47.37644577,8.55024147,505.69064331,6,9,1
1326900327.10949087,47.37644577,8.55024052,505.67495728,6,9,1
1326900327.16108489,47.37644577,8.55024052,505.30401611,6,9,1
1326900327.20953512,47.37644577,8.55024052,505.27334595,6,9,1
1326900327.27289724,47.37644577,8.55023956,505.25225830,6,9,1
1326900327.31005549,47.37644577,8.55023956,505.22689819,6,9,1
1326900327.36156631,47.37644577,8.55023956,505.20993042,6,9,1
1326900327.40951180,47.37644577,8.55023956,505.18872070,6,9,1
1326900327.46052837,47.37644577,8.55023956,504.79733276,6,9,1
1326900327.51346850,47.37644577,8.55023956,504.77453613,6,9,1
1326900327.56171656,47.37644577,8.55023956,504.75173950,6,9,1
1326900327.61274576,47.37644958,8.55023956,504.72888184,6,9,1
1326900327.66003633,47.37644958,8.55023861,504.35592651,2,9,1
1326900327.71169782,47.37644958,8.55023861,504.31741333,2,9,1
1326900327.76153731,47.37644958,8.55023861,504.29299927,2,9,1
1326900327.80994821,47.37644958,8.55023861,504.26852417,2,9,1
1326900327.86196017,47.37644958,8.55023766,504.24401855,2,9,1
1326900327.91348171,47.37644958,8.55023766,503.87313843,2,9,1
1326900327.96091628,47.37644958,8.55023670,503.83779907,2,9,1
1326900328.01278758,47.37644958,8.55023670,503.81176758,2,9,1
1326900328.06953406,47.37644958,8.55023670,503.78570557,2,9,1
1326900328.11353946,47.37644958,8.55023575,503.75436401,2,9,1
1326900328.16157961,47.37645340,8.55023575,503.39822388,2,9,1
1326900328.22150826,47.37645340,8.55023479,503.36267090,2,9,1
1326900328.26165509,47.37645340,8.55023479,503.32958984,2,9,1
1326900328.31350756,47.37645340,8.55023479,503.30752563,2,9,1
1326900328.36164904,47.37645340,8.55023479,503.27990723,2,9,1
1326900328.40965748,47.37645340,8.55023384,502.93090820,2,9,1
1326900328.46953058,47.37645340,8.55023289,502.88873291,2,9,1
1326900328.50947189,47.37645340,8.55023289,502.85385132,2,9,1
1326900328.56188726,47.37645340,8.55023289,502.83059692,2,9,1
1326900328.60950851,47.37645340,8.55023193,502.80145264,2,9,1
1326900328.66162610,47.37645721,8.55023193,502.46511841,2,9,1
1326900328.70950532,47.37645340,8.55023098,502.42315674,2,9,1
1326900328.76061225,47.37645721,8.55023098,502.39263916,2,9,1
1326900328.81483793,47.37645721,8.55023098,502.36209106,2,9,1
1326900328.86425781,47.37645721,8.55023098,502.33151245,2,9,1
1326900328.91503811,47.37645721,8.55023003,502.00909424,2,9,1
1326900328.96054649,47.37645721,8.55023098,501.96606445,2,9,1
1326900329.02148414,47.37645721,8.55023098,501.93414307,2,9,1
1326900329.06256104,47.37645721,8.55023098,501.89581299,2,9,1
1326900329.10952449,47.37645721,8.55023003,501.87020874,2,9,1
1326900329.16062379,47.37645721,8.55023003,501.56265259,2,9,1
1326900329.21262813,47.37645721,8.55023003,501.51824951,2,9,1
1326900329.26150155,47.37645721,8.55023003,501.48498535,2,9,1
1326900329.31249452,47.37646103,8.55023003,501.45166016,2,9,1
1326900329.36157823,47.37646103,8.55023003,501.41833496,2,9,1
1326900329.41252470,47.37646103,8.55023003,501.12069702,2,9,1
1326900329.46124434,47.37646103,8.55023003,501.07705688,2,9,1
1326900329.50948739,47.37646103,8.55023003,501.04254150,2,9,1
1326900329.56224513,47.37646103,8.55022907,501.00793457,2,9,1
1326900329.61564851,47.37646103,8.55022907,500.97332764,2,9,1
1326900329.66151452,47.37646103,8.55022907,500.68792725,2,9,1
1326900329.71365476,47.37646103,8.55022907,500.64465332,2,9,1
1326900329.76151824,47.37646103,8.55022907,500.60888672,2,9,1
1326900329.82050395,47.37646484,8.55022907,500.57308960,2,9,1
1326900329.86158395,47.37646484,8.55022907,500.53005981,2,9,1
1326900329.90948892,47.37646484,8.55022907,500.26269531,2,9,1
1326900329.96109223,47.37646484,8.55022907,500.22430420,2,9,1
1326900330.02105379,47.37646484,8.55022907,500.18743896,2,9,1
1326900330.06151438,47.37646484,8.55022907,500.14312744,2,9,1
1326900330.10895848,47.37646484,8.55022907,500.11358643,2,9,1
1326900330.16050267,47.37646484,8.55022907,500.07659912,2,9,1
1326900330.22065401,47.37646484,8.55022907,499.79953003,2,9,1
1326900330.26165056,47.37646484,8.55022812,499.75396729,2,9,1
1326900330.30948114,47.37646484,8.55022812,499.72354126,2,9,1
1326900330.36050081,47.37646484,8.55022812,499.68551636,2,9,1
1326900330.41364264,47.37646866,8.55022812,499.64743042,2,9,1
1326900330.46059203,47.37646866,8.55022812,499.37182617,2,9,1
1326900330.50964737,47.37646866,8.55022812,499.33279419,2,9,1
1326900330.56051993,47.37646866,8.55022812,499.29373169,2,9,1
1326900330.60878825,47.37646866,8.55022812,499.25463867,2,9,1
1326900330.67358232,47.37646866,8.55022812,499.21551514,2,9,1
1326900330.70949221,47.37646866,8.55022812,498.93820190,2,9,1
1326900330.76118946,47.37646866,8.55022717,498.90615845,2,9,1
1326900330.81364465,47.37646866,8.55022717,498.86608887,2,9,1
1326900330.86060143,47.37646866,8.55022717,498.82592773,2,9,1
1326900330.91356540,47.37647247,8.55022717,498.55642700,2,9,1
1326900330.96155453,47.37647247,8.55022717,498.51171875,2,9,1
1326900331.01350355,47.37647247,8.55022717,498.47055054,2,9,1
1326900331.06052852,47.37647247,8.55022717,498.42938232,2,9,1
1326900331.11348176,47.37647247,8.55022717,498.38815308,2,9,1
1326900331.16062808,47.37647247,8.55022717,498.34689331,2,9,1
1326900331.21356702,47.37647247,8.55022717,498.08129883,2,9,1
1326900331.26951075,47.37647247,8.55022717,498.03909302,2,9,1
1326900331.32157397,47.37647247,8.55022717,497.98840332,2,9,1
1326900331.36955976,47.37647247,8.55022717,497.94613647,2,9,1
1326900331.41104412,47.37647247,8.55022717,497.69470215,2,9,1
1326900331.46862531,47.37647247,8.55022717,497.66223145,2,9,1
1326900331.52048755,47.37647247,8.55022717,497.61044312,2,9,1
1326900331.56162786,47.37647247,8.55022717,497.56726074,2,9,1
1326900331.62061501,47.37647247,8.55022717,497.53268433,2,9,1
1326900331.66028190,47.37647629,8.55022717,497.28796387,2,9,1
1326900331.71110630,47.37647629,8.55022717,497.25277710,2,9,1
1326900331.76151156,47.37647629,8.55022717,497.20870972,2,9,1
1326900331.80936027,47.37647629,8.55022717,497.16464233,2,9,1
1326900331.86052942,47.37647629,8.55022717,497.12051392,2,9,1
1326900331.90952873,47.37647629,8.55022717,496.88641357,2,9,1
1326900331.96154523,47.37647629,8.55022717,496.84762573,2,9,1
1326900332.02061868,47.37647629,8.55022717,496.80273438,2,9,1
1326900332.06954980,47.37647629,8.55022717,496.74877930,2,9,1
1326900332.12062240,47.37647629,8.55022621,496.70379639,2,9,1
1326900332.16171384,47.37647629,8.55022717,496.47549438,2,9,1
1326900332.20924807,47.37647629,8.55022621,496.44473267,2,9,1
1326900332.26862407,47.37647629,8.55022621,496.39895630,2,9,1
1326900332.30950856,47.37647629,8.55022621,496.34399414,2,9,1
1326900332.36857772,47.37647629,8.55022621,496.30731201,2,9,1
1326900332.42055273,47.37647629,8.55022621,496.07266235,2,9,1
1326900332.46153092,47.37647629,8.55022621,496.02606201,2,9,1
1326900332.52061105,47.37647629,8.55022526,495.98873901,2,9,1
1326900332.56975150,47.37647629,8.55022526,495.93270874,2,9,1
1326900332.60910678,47.37647629,8.55022526,495.88598633,2,9,1
1326900332.66064715,47.37647629,8.55022526,495.66442871,2,9,1
1326900332.70947886,47.37647629,8.55022526,495.62258911,2,9,1
1326900332.76109457,47.37647629,8.55022526,495.57507324,2,9,1
1326900332.80907989,47.37647629,8.55022526,495.52749634,2,9,1
1326900332.86154103,47.37647629,8.55022526,495.47988892,2,9,1
1326900332.90965605,47.37648010,8.55022526,495.24523926,2,9,1
1326900332.96161890,47.37647629,8.55022430,495.19750977,2,9,1
1326900333.02051139,47.37647629,8.55022430,495.14907837,2,9,1
1326900333.06149507,47.37647629,8.55022430,495.09091187,2,9,1
1326900333.10949206,47.37647629,8.55022430,495.05212402,2,9,1
1326900333.16959357,47.37648010,8.55022430,494.81512451,2,9,1
1326900333.21248150,47.37647629,8.55022335,494.76315308,2,9,1
1326900333.26149392,47.37647629,8.55022240,494.72375488,2,9,1
1326900333.32049727,47.37647629,8.55022240,494.67446899,2,9,1
1326900333.36946344,47.37647629,8.55022240,494.61529541,2,9,1
1326900333.42050672,47.37648010,8.55022240,494.56594849,2,9,1
1326900333.47280097,47.37648010,8.55022240,494.36138916,2,9,1
1326900333.50950027,47.37648010,8.55022240,494.31137085,2,9,1
1326900333.57257891,47.37648010,8.55022240,494.27133179,2,9,1
1326900333.60948062,47.37648010,8.55022240,494.21124268,2,9,1
1326900333.65944052,47.37648010,8.55022240,494.02947998,1,9,1
1326900333.72164416,47.37648010,8.55022240,493.99163818,1,9,1
1326900333.76968002,47.37648010,8.55022240,493.93084717,1,9,1
1326900333.80880022,47.37648010,8.55022240,493.88012695,1,9,1
1326900333.86958265,47.37648010,8.55022240,493.83956909,1,9,1
1326900333.92029667,47.37648010,8.55022240,493.66241455,1,9,1
1326900333.96993876,47.37648010,8.55022240,493.61120605,1,9,1
1326900334.02072978,47.37648010,8.55022240,493.55999756,1,9,1
1326900334.06961799,47.37648010,8.55022240,493.50875854,1,9,1
1326900334.12062240,47.37648010,8.55022144,493.45745850,1,9,1
1326900334.16954923,47.37648010,8.55022144,493.30731201,1,9,1
1326900334.22063255,47.37648010,8.55022144,493.25561523,1,9,1
1326900334.26864743,47.37648392,8.55022144,493.20388794,1,9,1
1326900334.32158518,47.37648392,8.55022144,493.15209961,1,9,1
1326900334.36861348,47.37648392,8.55022144,493.10031128,1,9,1
1326900334.42062163,47.37648392,8.55022144,492.95657349,1,9,1
1326900334.46952152,47.37648392,8.55022144,492.91323853,1,9,1
1326900334.52063060,47.37648392,8.55022144,492.86105347,1,9,1
1326900334.56950855,47.37648392,8.55022144,492.80880737,1,9,1
1326900334.62152719,47.37648392,8.55022049,492.75653076,1,9,1
1326900334.66855335,47.37648392,8.55022049,492.63507080,1,9,1
1326900334.72153234,47.37648392,8.55022049,492.58251953,1,9,1
1326900334.76987553,47.37648392,8.55022049,492.52990723,1,9,1
1326900334.82138515,47.37648392,8.55022049,492.47729492,1,9,1
1326900334.86955667,47.37648392,8.55022049,492.42465210,1,9,1
1326900334.92150855,47.37648392,8.55022049,492.31967163,1,9,1
1326900334.96950841,47.37648392,8.55022049,492.26684570,1,9,1
1326900335.02112627,47.37648392,8.55022049,492.21395874,1,9,1
1326900335.06857324,47.37648392,8.55022049,492.16104126,1,9,1
1326900335.12152481,47.37648392,8.55022049,492.10806274,1,9,1
1326900335.16861653,47.37648392,8.55022144,492.01925659,1,9,1
1326900335.22234821,47.37648392,8.55022049,491.96612549,1,9,1
1326900335.26889014,47.37648392,8.55022049,491.91299438,1,9,1
1326900335.32165599,47.37648392,8.55022049,491.85980225,1,9,1
1326900335.36953688,47.37648392,8.55022049,491.80657959,1,9,1
1326900335.42123270,47.37648392,8.55022049,491.73635864,1,9,1
1326900335.46864009,47.37648392,8.55022049,491.68307495,1,9,1
1326900335.52621603,47.37648392,8.55022049,491.62976074,1,9,1
1326900335.56964374,47.37648392,8.55022049,491.57641602,1,9,1
1326900335.62164211,47.37648392,8.55022049,491.52301025,4,9,1
1326900335.66912961,47.37648392,8.55022049,491.46499634,4,9,1
1326900335.72165418,47.37648392,8.55022049,491.41159058,4,9,1
1326900335.76949811,47.37648392,8.55022049,491.35815430,4,9,1
1326900335.82110476,47.37648392,8.55022049,491.30465698,4,9,1
1326900335.87255073,47.37648392,8.55022049,491.25112915,4,9,1
1326900335.92152548,47.37648392,8.55022049,491.20932007,4,9,1
1326900335.96964526,47.37648392,8.55022049,491.15582275,4,9,1
1326900336.02065396,47.37648392,8.55022049,491.10232544,4,9,1
1326900336.06951404,47.37648392,8.55022049,491.04876709,4,9,1
1326900336.12153578,47.37648392,8.55022049,490.99517822,4,9,1
1326900336.16949725,47.37648392,8.55022049,490.96197510,4,9,1
1326900336.22156215,47.37648392,8.55022049,490.90844727,4,9,1
1326900336.26963639,47.37648392,8.55022049,490.85485840,4,9,1
1326900336.32159638,47.37648392,8.55022049,490.80123901,4,9,1
1326900336.37254453,47.37648392,8.55021954,490.74758911,4,9,1
1326900336.42164779,47.37648392,8.55022144,490.73205566,4,9,1
1326900336.46899629,47.37648392,8.55022144,490.67852783,4,9,1
1326900336.52096248,47.37648392,8.55022049,490.62496948,4,9,1
1326900336.56964016,47.37648392,8.55022049,490.57135010,4,9,1
1326900336.62081432,47.37648392,8.55022049,490.51773071,4,9,1
1326900336.67254925,47.37648392,8.55022144,490.51403809,4,9,1
1326900336.72151113,47.37648392,8.55022144,490.46060181,4,9,1
1326900336.76882577,47.37648392,8.55022144,490.40710449,4,9,1
1326900336.82166457,47.37648392,8.55022144,490.35360718,4,9,1
1326900336.86952233,47.37648392,8.55022144,490.30004883,4,9,1
1326900336.92261672,47.37648392,8.55022144,490.30963135,4,9,1
1326900336.96950793,47.37648392,8.55022144,490.25628662,4,9,1
1326900337.02053952,47.37648392,8.55022144,490.20294189,4,9,1
1326900337.06873631,47.37648392,8.55022144,490.14953613,4,9,1
1326900337.12150049,47.37648392,8.55022144,490.09613037,4,9,1
1326900337.16867709,47.37648392,8.55022240,490.09878540,4,9,1
1326900337.22165442,47.37648392,8.55022240,490.06594849,4,9,1
1326900337.26855826,47.37648392,8.55022240,490.01278687,4,9,1
1326900337.32185888,47.37648392,8.55022240,489.95962524,4,9,1
1326900337.36950731,47.37648392,8.55022240,489.90640259,4,9,1
1326900337.42051363,47.37648392,8.55022240,489.85314941,4,9,1
1326900337.46853304,47.37648392,8.55022335,489.88546753,4,9,1
1326900337.52151132,47.37648392,8.55022335,489.83258057,4,9,1
1326900337.56987810,47.37648392,8.55022335,489.77963257,4,9,1
1326900337.62049747,47.37648392,8.55022335,489.72665405,4,9,1
1326900337.66898751,47.37648773,8.55022335,489.74380493,4,9,1
1326900337.72158003,47.37648773,8.55022335,489.71133423,4,9,1
1326900337.76951194,47.37648773,8.55022335,489.65869141,4,9,1
1326900337.82246971,47.37648773,8.55022335,489.60601807,4,9,1
1326900337.86855125,47.37648773,8.55022335,489.55328369,4,9,1
1326900337.92148423,47.37648773,8.55022335,489.59844971,4,9,1
1326900337.96854019,47.37648773,8.55022335,489.54611206,4,9,1
1326900338.02133298,47.37648773,8.55022335,489.49377441,4,9,1
1326900338.06852508,47.37648773,8.55022335,489.44137573,4,9,1
1326900338.12130308,47.37648773,8.55022335,489.38891602,4,9,1
1326900338.16953993,47.37648773,8.55022430,489.42575073,4,9,1
1326900338.22125936,47.37648773,8.55022335,489.39041138,4,9,1
1326900338.26852512,47.37648773,8.55022335,489.33834839,4,9,1
1326900338.32159662,47.37648773,8.55022335,489.28622437,4,9,1
1326900338.36849403,47.37648773,8.55022335,489.23410034,4,9,1
1326900338.42035103,47.37648773,8.55022335,489.18191528,4,9,1
1326900338.47249198,47.37648773,8.55022430,489.24734497,4,9,1
1326900338.52251816,47.37648773,8.55022430,489.19558716,4,9,1
1326900338.56960607,47.37648773,8.55022430,489.14379883,4,9,1
1326900338.62052608,47.37648773,8.55022430,489.09201050,4,9,1
1326900338.66950083,47.37648773,8.55022430,489.16171265,4,9,1
1326900338.72151232,47.37648773,8.55022430,489.11038208,4,9,1
1326900338.77126813,47.37648773,8.55022430,489.05899048,4,9,1
1326900338.82148981,47.37648773,8.55022430,489.00759888,4,9,1
1326900338.86954880,47.37648773,8.55022430,488.95611572,4,9,1
1326900338.92062545,47.37648773,8.55022526,489.03897095,4,9,1
1326900338.96953726,47.37648773,8.55022526,488.98803711,4,9,1
1326900339.02111459,47.37648773,8.55022526,488.93707275,4,9,1
1326900339.06955528,47.37648773,8.55022526,488.88607788,4,9,1
1326900339.12149572,47.37648773,8.55022526,488.83502197,4,9,1
1326900339.16963983,47.37648773,8.55022621,488.93075562,4,9,1
1326900339.22150993,47.37648773,8.55022621,488.88027954,4,9,1
1326900339.27255559,47.37648773,8.55022621,488.82977295,4,9,1
1326900339.31960011,47.37648773,8.55022621,488.77923584,4,9,1
1326900339.36951256,47.37648773,8.55022621,488.72863770,4,9,1
1326900339.42153406,47.37649155,8.55022717,488.81692505,4,9,1
1326900339.47263598,47.37648773,8.55022812,488.79385376,4,9,1
1326900339.52152181,47.37648773,8.55022812,488.74386597,4,9,1
1326900339.56988120,47.37648773,8.55022812,488.69387817,4,9,1
1326900339.62156272,47.37648773,8.55022812,488.64382935,4,9,1
1326900339.67357016,47.37649155,8.55022907,488.76730347,4,9,1
1326900339.72157907,47.37649155,8.55022907,488.71795654,4,9,1
1326900339.76949716,47.37649155,8.55022907,488.66857910,4,9,1
1326900339.82152486,47.37649155,8.55022907,488.61914062,4,9,1
1326900339.86964226,47.37649155,8.55022907,488.56967163,4,9,1
1326900339.92155433,47.37648773,8.55023003,488.71099854,4,9,1
1326900339.96863103,47.37648773,8.55023003,488.66226196,4,9,1
1326900340.02068663,47.37648773,8.55023003,488.61352539,4,9,1
1326900340.06855726,47.37648773,8.55023003,488.56472778,4,9,1
1326900340.12166119,47.37648773,8.55023003,488.51586914,4,9,1
1326900340.16956353,47.37649155,8.55023193,488.67950439,4,9,1
1326900340.22231841,47.37649155,8.55023193,488.63150024,4,9,1
1326900340.26862693,47.37649155,8.55023193,488.58343506,4,9,1
1326900340.32552218,47.37649155,8.55023193,488.53533936,4,9,1
1326900340.36993957,47.37649155,8.55023193,488.48718262,4,9,1
